Location: ?
(35.4554°N, 139.3092°E)
Time: 21:57:35
(UTC+00:00)

Cosmos 2369 Rocket - Pass Details

Date: 21 April 2021
Orbit: 828 x 853 km, 71.0° (Epoch: 10 May)

Event Time Altitude Azimuth Distance (km) Brightness Sun altitude
Exits shadow 18:50:41 21° 253° (WSW) 1,798 3.3 -14.4°
Maximum altitude 18:53:27 31° 299° (WNW) 1,413 3.1 -13.9°
Drops below altitude 10° 18:58:24 10° 1° (N) 2,446 5.0 -12.9°
Sets 19:01:08 0° 12° (NNE) 3,388 5.9 -12.4°
